Regional Weather Roundup
Issued by NWS Northern Indiana

Home | Current Version | Previous Version | Graphics & Text | Print | Product List | Glossary On
Versions: 1 2 3 4 5 6 7 8 9 10 11 12 13 14 15 16 17 18 19 20 21 22 23 24 25 26 27 28 29 30 31 32 33 34 35 36 37 38 39 40 41 42 43 44 45 46 47 48 49 50
000
ASUS43 KIWX 290710
RWRIWX

KIWX WEATHER ROUNDUP
NATIONAL WEATHER SERVICE NORTHERN INDIANA
300 AM EDT FRI AUG 29 2014

NOTE: "FAIR" INDICATES FEW OR NO CLOUDS BELOW 12,000 FEET WITH NO
SIGNIFICANT WEATHER AND/OR OBSTRUCTIONS TO VISIBILITY.

* THESE STATIONS ARE NOT UNDER NWS QUALITY CONTROL. THEY ALSO MAY NOT
  REPORT WEATHER SUCH AS PRECIPITATION OR FOG.

INZ001>027-290800-
NORTHERN INDIANA

CITY           SKY/WX    TMP DP  RH WIND       PRES   REMARKS
GARY*          CLOUDY    71  66  82 SE7       30.00F
VALPARAISO     CLOUDY    69  63  81 SE8       30.03F
MICHIGAN CITY* CLOUDY    70  59  68 SE3       30.02F
LAPORTE*       CLOUDY    68  62  82 SE5       30.04S
KNOX*          CLOUDY    68  61  77 SE8       30.02F
SOUTH BEND     CLOUDY    70  61  73 SE13      30.04F
GOSHEN         MOCLDY    67  59  75 SE8       30.06F
MONTICELLO*    CLOUDY    67  64  89 E3        30.02F
LOGANSPORT*    CLOUDY    64  61  88 E6        30.05F
ROCHESTER*     MOCLDY    70  63  78 SE8       30.05F
WARSAW*        MOCLDY    64  61  88 SE3       30.06F
ANGOLA*        PTCLDY    61  55  82 SE8       30.09F
FORT WAYNE     MOCLDY    63  59  87 E6        30.09F
HUNTINGTON*    PTCLDY    63  61  94 E3        30.07F
PERU/GRISSOM   MOCLDY    66  66 100 SE6       30.05F
MARION*        MOCLDY    65  60  83 SE6       30.07F

$$
INZ028>050-290800-
CENTRAL INDIANA

CITY           SKY/WX    TMP DP  RH WIND       PRES   REMARKS
LAFAYETTE      CLOUDY    69  65  86 E7        30.01F
KOKOMO*        CLOUDY    64  61  88 SE6       30.06S
MUNCIE*        PTCLDY    67  60  78 SE7       30.07F
INDIANAPOLIS   NOT AVBL

$$
MIZ043>046-050>051-056>058-064>065-071>073-077>080-290800-
SOUTHWEST LOWER MICHIGAN

CITY           SKY/WX    TMP DP  RH WIND       PRES   REMARKS
BATTLE CREEK   MOCLDY    64  56  75 SE9       30.09F
BENTON HARBOR  CLOUDY    65  61  87 SE8       30.02F
COLDWATER*     MOCLDY    63  57  79 SE7       30.09F
HILLSDALE*     MOCLDY    61  55  80 SE7       30.11F
HOLLAND        CLOUDY    64  55  72 E7        30.05F
GRAND RAPIDS   MOCLDY    63  57  81 E9        30.08F
KALAMAZOO      MOCLDY    64  57  78 SE6       30.07F
STURGIS*         N/A     64  57  77 SE10G16   30.07F
THREE RIVERS*  FAIR      66  58  76 SE5       30.07F

$$
OHZ001>008-015>018-024>025-290800-
NORTHWEST OHIO

CITY           SKY/WX    TMP DP  RH WIND       PRES   REMARKS
WAUSEON*       FAIR      59  54  82 E7        30.11F
DEFIANCE       PTCLDY    60  55  83 E5        30.10F
FINDLAY        CLEAR     60  53  77 E9        30.10F
TOLEDO EXPRESS PTCLDY    59  51  75 SE3       30.11F
TOLEDO METCALF PTCLDY    58  51  78 E6        30.13F
LIMA           CLEAR     62  55  77 E9        30.10F

$$
&&



USA.gov is the U.S. government's official web portal to all federal, state and local government web resources and services.